Retour au catalogue

CZ-6A DEB

ActifPO
NORAD 60620·DEBRIS·🇨🇳 China

Lancé Aug 6, 2024 depuis Taiyuan Satellite Launch Center

Loading…

Prochains Passages (prochaines 24 heures)

TLE

FraisSource: Space-Track

Époque: Sep 14, 2026, 10:59 UTC

1 60620U 24140V   26257.45772623  .00000306  00000-0  64992-4 0  9996
2 60620  89.0188 261.9848 0110834 318.4577  40.8246 14.52758812111460

Suivez CZ-6A DEB en temps réel avec AllMySat

Download on the App Store